Regional Weather Roundup
Issued by NWS Green Bay, WI

Home | Current Version | Previous Version | Graphics & Text | Print | Product List | Glossary Off
Versions: 1 2 3 4 5 6 7 8 9 10 11 12 13 14 15 16 17 18 19 20 21 22 23 24 25 26 27 28 29 30 31 32 33 34 35 36 37 38 39 40 41 42 43 44 45 46 47 48 49 50

454
ASUS43 KGRB 260211
RWRGRB

NORTH-CENTRAL AND NORTHEAST WISCONSIN REGIONAL WEATHER ROUNDUP
NATIONAL WEATHER SERVICE GREEN BAY WI
900 PM CDT WED APR 25 2018

WIZ005-009-010>012-018-019-260300-
NORTH CENTRAL WISCONSIN

CITY           SKY/WX    TMP DP  RH WIND       PRES   REMARKS
IRONWOOD       FAIR      38  24  57 SE5       29.96F
MANITOWISH WTR FAIR      36  22  56 CALM      29.97F
ARBOR VITAE    FAIR      42  24  49 CALM      29.98F
EAGLE RIVER    FAIR      36  18  47 CALM      29.98F
LAND O LAKES   FAIR      35  20  54 CALM      30.00F
RHINELANDER    FAIR      38  22  52 CALM      29.99F
PHILLIPS       FAIR      40  24  51 CALM      29.98S
ANTIGO         FAIR      41  31  68 CALM      30.00R
TOMAHAWK       FAIR      36  24  64 CALM      30.00S
MERRILL        FAIR      41  27  57 CALM      30.00S
$$

WIZ013-073-260300-
NORTHEAST WISCONSIN

CITY           SKY/WX    TMP DP  RH WIND       PRES   REMARKS
IRON MOUNTAIN  FAIR      40  24  53 CALM      29.97S
MARINETTE      FAIR      37  26  64 E3        30.03R
OCONTO         FAIR      38  31  73 S3        30.02R
$$

WIZ017-030-035>037-045-260300-
CENTRAL WISCONSIN

CITY           SKY/WX    TMP DP  RH WIND       PRES   REMARKS
MEDFORD        FAIR      44  29  56 CALM      29.99S
WAUSAU         FAIR      46  25  43 CALM      29.98S
MOSINEE        PTCLDY    48  25  40 W6        30.01S
MARSHFIELD     FAIR      47  30  51 CALM      29.99S
WISC RAPIDS    FAIR      42  28  57 CALM      30.01S
STEVENS POINT  FAIR      42  28  58 CALM      30.01S
WAUPACA        FAIR      47  32  56 CALM      30.00F
SHAWANO        FAIR      46  29  51 CALM      29.99S
CLINTONVILLE   FAIR      46  29  53 SW3       30.00S
WAUTOMA        FAIR      42  33  70 CALM      30.01F
$$

WIZ038-039-048-051-260300-
FOX VALLEY

CITY           SKY/WX    TMP DP  RH WIND       PRES   REMARKS
NWS GREEN BAY  FAIR      46  35  65 SE9       30.01R
APPLETON       PTCLDY    45  27  49 S6        29.99F
OSHKOSH        FAIR      45  32  60 S3        30.00F
FOND DU LAC    FAIR      43  28  55 S3        30.01S
$$

WIZ022-050-052-260300-
EAST CENTRAL WISCONSIN

CITY           SKY/WX    TMP DP  RH WIND       PRES   REMARKS
EPHRAIM        FAIR      37  26  63 S3        30.00S
WASHINGTON ISL FAIR      34  28  80 CALM      30.01S
STURGEON BAY   FAIR      38  28  67 SE5       30.02S
MANITOWOC      FAIR      39  28  64 CALM      30.04S
SHEBOYGAN      FAIR      36  29  75 CALM      30.03S
$$

LMZ563-521-522-541>543-260300-
LAKESHORE

STATION/POSITION TIME  TEMP    WIND        PRES    VSBY  WAVE
                       AIR SEA DIR/SP/G                  HT/PER
                 (UTC) (F)     (DEG/KT/KT) (MB)    (MI)  (FT/S)
SHEBOYGAN LKSHOR 0200   40     190/  3/  3 1017.5S
KEWAUNEE LKSHORE 0142   41     200/  5/  6 1016.2R
NORTHPORT PIER   0140   38                 1016.3S
SISTER BAY LKSHO 0157   39     150/  3/  4   N/A
MENOMINEE LKSHOR 0136   36     150/  3/  4 1016.1F
$$




USA.gov is the U.S. government's official web portal to all federal, state and local government web resources and services.